#timestamp,LO_Frequency,Hit,StdDev 
1662364815.0,286047001.1,N
1662364815.9,286047001.1,N
1662364835.8,286047001.1,N
1662364855.6,286047000.4,N
1662364875.4,286046998.1,N
1662364895.3,286046999.3,N
1662364915.1,286046996.8,N
1662364935.9,286046999.2,N
1662364955.7,286046999.6,N
1662364975.5,286046999.5,N
1662364995.4,286046999.0,N
1662365015.2,286046999.6,N
1662365035.0,286046996.5,N
1662365035.9,286046996.5,N
1662365055.8,286046996.9,N
1662365075.6,286046996.5,N
1662365095.4,286046999.0,N
1662365115.3,286046999.0,N
1662365135.1,286046998.7,N
1662365155.9,286046999.2,N
1662365175.7,286046999.6,N
1662365195.5,286046996.5,N
1662365215.4,286046999.4,N
1662365235.2,286046998.9,N
1662365255.1,286046998.3,N
1662365256.0,286046998.3,N
1662365275.8,286046998.6,N
1662365295.6,286046998.5,N
1662365315.5,286047000.9,N
1662365335.3,286046999.7,N
1662365355.1,286047000.2,N
1662365375.9,286047002.8,N
1662365395.7,286047002.3,N
1662365415.6,286047002.8,N
1662365435.4,286047001.6,N
1662365455.2,286047001.8,N
1662365475.1,286047004.1,N
1662365476.0,286047004.1,N
1662365495.8,286047004.2,N
1662365515.6,286047004.0,N
1662365535.5,286047004.3,N
1662365555.3,286047001.4,N
1662365575.2,286047003.7,N
1662365595.9,286047001.4,N
1662365615.7,286047003.8,N
1662365635.6,286047003.5,N
1662365655.4,286047003.4,N
1662365675.2,286047003.7,N
1662365695.1,286047003.0,N
1662365696.0,286047003.0,N
1662365715.8,286047006.0,N
1662365735.7,286047002.9,N
1662365755.5,286047005.6,N
1662365775.3,286047005.7,N
1662365795.2,286047004.5,N
1662365815.0,286047005.8,N
1662365815.9,286047005.8,N
1662365835.8,286047003.0,N
1662365855.6,286047005.9,Y
1662365875.5,286047002.3,P
1662365895.3,286047002.4,P
1662365915.1,286047004.4,P
1662365935.9,286047001.9,N
1662365955.7,286047001.5,N
1662365975.5,286047002.0,N
1662365995.4,286047001.6,N
1662366015.2,286047004.0,Y
1662366035.1,286047000.8,P
1662366036.0,286047000.8,N
1662366055.8,286046999.9,N
1662366075.6,286047000.1,N
1662366095.5,286047002.7,Y
1662366115.3,286046998.8,P
1662366135.2,286047001.1,N
1662366155.9,286046998.9,N
1662366175.7,286046999.6,N
1662366195.6,286046999.6,N
1662366215.4,286046997.2,Y
1662366235.2,286046999.2,P
1662366255.1,286046999.1,P
1662366256.0,286046999.1,P
1662366275.8,286046998.7,Y
1662366295.7,286047000.7,P
1662366315.5,286047000.5,N
1662366335.3,286047000.6,N
1662366355.2,286047000.2,N
1662366375.0,286047002.4,Y
1662366375.9,286047002.4,P
1662366395.8,286046998.1,N
1662366415.6,286046999.7,N
1662366435.4,286047000.1,N
1662366455.3,286047002.3,N
1662366475.1,286047000.6,N
1662366495.8,286047002.8,N
1662366515.7,286047000.0,N
1662366535.5,286047002.8,N
1662366555.4,286047001.9,N
1662366575.2,286046999.9,N
1662366595.0,286047000.3,N
1662366595.9,286047000.3,N
1662366615.8,286046999.7,N
1662366635.6,286047002.7,N
1662366655.4,286047002.3,N
1662366675.3,286047000.2,N
1662366695.1,286047002.8,N
1662366715.9,286047000.1,N
1662366735.7,286047002.6,N
1662366755.5,286047002.7,N
1662366775.4,286047002.7,N
1662366795.2,286047002.5,N
1662366815.0,286047000.7,N
1662366815.9,286047000.7,N
1662366835.8,286046999.2,N
1662366855.6,286046998.7,N
1662366875.5,286046999.1,N
1662366895.3,286046998.7,N
1662366915.1,286046998.5,N
1662366935.9,286047002.0,N
1662366955.7,286047002.4,N
1662366975.6,286046999.9,N
1662366995.4,286047001.2,N
1662367015.2,286047000.8,N
1662367035.1,286046998.6,N
1662367036.0,286046998.6,N
1662367055.8,286046998.5,N
1662367075.6,286046998.4,N
1662367095.5,286047001.1,N
1662367115.3,286046999.3,N
1662367135.2,286046998.9,N
1662367155.9,286047000.4,N
1662367175.7,286046998.5,N
1662367195.6,286047000.8,N
1662367215.4,286047000.3,N
1662367235.2,286047000.2,N
1662367255.1,286047002.7,N
1662367256.0,286047002.7,N
1662367275.8,286047002.6,N
1662367295.7,286047001.4,N
1662367315.5,286047003.8,N
1662367335.3,286047002.1,N
1662367355.2,286047002.1,N
1662367375.0,286047001.0,N
1662367375.9,286047001.0,N
1662367395.7,286046999.9,N
1662367415.6,286047002.3,N
1662367435.4,286047002.0,N
1662367455.3,286047001.6,N
1662367475.1,286047001.0,N
1662367495.8,286047001.0,N
1662367515.7,286047000.3,N
1662367535.5,286047000.5,N
1662367555.4,286047001.5,N
1662367575.2,286047001.4,N
1662367595.0,286047003.5,N
1662367595.9,286047003.5,N
1662367615.8,286047005.3,Y
1662367635.6,286047004.3,P
1662367655.5,286047001.4,N
1662367675.3,286047001.5,N
1662367695.1,286047001.6,N
1662367715.9,286047002.6,N
1662367735.7,286047000.2,N
1662367755.5,286047002.2,N
1662367775.4,286047002.5,N
1662367795.2,286047004.4,Y
1662367815.1,286047000.9,P
1662367816.0,286047000.9,N
1662367835.8,286047002.8,P
1662367855.6,286047001.0,N
1662367875.5,286047000.3,N
1662367895.3,286047000.2,N
1662367915.2,286047001.0,N
1662367935.9,286047000.8,N
1662367955.7,286047001.1,N
1662367975.6,286047000.0,N
1662367995.4,286046999.8,N
1662368015.2,286047002.1,N
1662368035.1,286047000.5,N
1662368036.0,286047000.5,N
1662368055.8,286047000.6,N
1662368075.7,286046999.3,N
1662368095.5,286046996.5,Y
1662368115.3,286046997.8,P
1662368135.2,286046996.5,N
1662368155.0,286046997.9,N
1662368155.9,286046997.9,N
1662368175.8,286046995.3,Y
1662368195.6,286046998.9,P
1662368215.4,286046999.5,N
1662368235.3,286046996.6,P
1662368255.1,286046998.2,N
1662368275.8,286047000.5,N
1662368295.7,286047000.9,N
1662368315.5,286047000.7,N
1662368335.4,286047000.8,N
1662368355.2,286046999.9,N
1662368375.0,286046998.2,N
1662368375.9,286046998.2,N
1662368395.8,286047000.4,N
